Location: Unspecified
(0.0000°N, 0.0000°E)
Time: 14:56:32
(UTC+02:00)

Vanguard 3 - Visible Passes

Search period start: 22 July 2018 00:00
Search period end: 01 August 2018 00:00
Orbit: 508 x 3264 km, 33.3° (Epoch: 21 July)

Date Brightness Start Highest point End Pass type
(mag) Time Alt. Az. Time Alt. Az. Time Alt. Az.
27 Jul 10.2 23:38:02 10° NNW 23:38:47 12° NNW 23:38:47 12° NNW visible
28 Jul 10.0 22:23:46 10° N 22:27:08 12° NNE 22:29:02 11° NNE visible
29 Jul 10.4 21:08:22 10° N 21:10:56 11° N 21:13:14 10° NNE visible
29 Jul 9.9 23:20:38 10° NNW 23:23:51 18° NNW 23:23:51 18° NNW visible
30 Jul 9.7 22:05:27 10° NNW 22:11:49 17° NNE 22:14:08 15° NE visible
31 Jul 10.3 20:49:20 10° NNW 20:55:36 14° N 21:00:33 10° NE visible
31 Jul 9.5 23:03:25 10° NW 23:09:01 27° N 23:09:01 27° N visible
